Regional Weather Roundup
Issued by NWS

Home | Current Version | Previous Version | Text Only | Print | Product List | Glossary On
Versions: 1 2 3 4 5 6 7 8 9 10 11 12 13 14 15 16 17 18 19 20 21 22 23 24 25 26 27 28 29 30 31 32 33 34 35 36 37 38 39 40 41 42 43 44 45 46 47 48 49 50
000
ASUS44 KFWD 271403
RWRTX
NORTH TEXAS HOURLY WEATHER ROUNDUP
NATIONAL WEATHER SERVICE FORT WORTH TX
900 AM CDT SAT AUG 27 2016

NOTE: "FAIR" INDICATES FEW OR NO CLOUDS BELOW 12,000 FEET WITH NO
SIGNIFICANT WEATHER AND/OR OBSTRUCTIONS TO VISIBILITY.

TXZ118-119-271500-
DALLAS/FORT WORTH METROPLEX

CITY           SKY/WX    TMP DP  RH WIND       PRES   REMARKS
DFW AIRPORT    MOSUNNY   79  72  79 SE8       30.04R
DALLAS LOVE    MOSUNNY   78  71  79 E8        30.05R
FTW MEACHAM    SUNNY     78  71  79 SE6       30.04R
DAL-EXECUTIVE  PTSUNNY   74  73  97 SE3       30.05R FOG
FTW-ALLIANCE   MOSUNNY   77  72  84 SE5       30.04R
FTW-SPINKS     SUNNY     75  73  94 SE5       30.06R
ARLINGTON      SUNNY     78  72  81 SE8       30.05R
GRAND PRAIRIE  SUNNY     77  72  83 E7        30.06R
ADDISON        SUNNY     79  73  83 E6        30.06R
MESQUITE       SUNNY     73  73 100 CALM      30.05R
LANCASTER      CLOUDY    75  73  92 CALM      30.06R FOG
$$

TXZ091>094-102>105-117-120-121-131>134-271500-
NORTH CENTRAL TEXAS

CITY           SKY/WX    TMP DP  RH WIND       PRES   REMARKS
SHRMAN/DENISON NOT AVBL
GAINESVILLE      N/A     74  71  91 SE5       30.07R
BOWIE          SUNNY     75  72  88 SE3       30.06R
BRIDGEPORT     SUNNY     74  74 100 SE6       30.07R
DECATUR        SUNNY     75  72  92 E6        30.06R
DENTON         SUNNY     77  73  87 SE7       30.04R
MCKINNEY       CLOUDY    74  72  93 CALM      30.06R
GREENVILLE     CLOUDY    73  72  94 CALM      30.06R
ROCKWALL       CLOUDY    74  73  98 SE8       30.05R
TERRELL        CLOUDY    75  73  93 E3        30.05R
WAXAHACHIE     FOG       73  73 100 E3        30.06R VSB 3/4
CLEBURNE       SUNNY     75  75 100 SE6       30.06S
GRANBURY       SUNNY     77  72  85 SE7       30.05S
$$

TXZ083>090-098>101-113>116-127>130-139>142-154-155-271500-
WESTERN NORTH TEXAS

CITY           SKY/WX    TMP DP  RH WIND       PRES   REMARKS
WICHITA FALLS  SUNNY     76  70  82 E9        30.03R
WF-KICKAPOO    SUNNY     77  70  79 E7        30.05R
VERNON         SUNNY     77  67  71 SE3       30.04R
ABILENE        CLOUDY    77  69  76 SW9       30.06R
ABILENE-DYESS  CLOUDY    78  68  71 SW8       30.04S
CISCO          SUNNY     77  70  78 SW10      30.06R
GRAHAM         SUNNY     77  71  81 SE3       30.02R
MINERAL WELLS  MOSUNNY   75  72  90 SE9       30.04R
STEPHENVILLE   SUNNY     73  71  92 CALM      30.08R
COMANCHE       SUNNY     75  72  89 SW6       30.05S
BROWNWOOD      SUNNY     75  70  83 CALM      30.06S
COLEMAN        SUNNY     77  69  75 SW9       30.07R
$$

TXZ143>147-156>162-174-175-271500-
CENTRAL TEXAS

CITY           SKY/WX    TMP DP  RH WIND       PRES   REMARKS
WACO           SUNNY     74  74 100 E5        30.04R FOG
WACO-MCGREGOR  SUNNY     76  73  91 E5        30.05R
HILLSBORO      MOSUNNY   73  72  95 E6        30.05R FOG
CORSICANA      CLOUDY    77  73  87 E5        30.05S
MEXIA          PTSUNNY   74  73  99 W5        30.04S
HEARNE         CLOUDY    74  73  98 MISG      30.04S
CAMERON        PTSUNNY   76  74  95 CALM      30.03S
TEMPLE         SUNNY     77  73  87 CALM      30.04S
KILLEEN        SUNNY     76  73  88 SE3       30.03S
KILLEEN-SKYLRK SUNNY     77  73  87 CALM      30.04S
FORT HOOD      SUNNY     76  72  86 CALM      30.02S
HAMILTON       SUNNY     75  75 100 CALM      30.06R
$$

TXZ095>097-106>112-122>126-135>138-148>153-164>167-271500-
EAST TEXAS

CITY           SKY/WX    TMP DP  RH WIND       PRES   REMARKS
PARIS          CLOUDY    79  72  78 NE3       30.06R
SULPHUR SPRNGS CLOUDY    81  74  80 E3        30.07R
MOUNT PLEASANT MOSUNNY   77  77  99 CALM      30.06R
GILMER         PTSUNNY   77  75  94 CALM      30.04S
TYLER          CLOUDY    78  72  81 NE5       30.04R
LONGVIEW       PTSUNNY   78  75  90 CALM      30.03R FOG
MARSHALL         N/A    N/A N/A N/A MISG        N/A
ATHENS         CLOUDY    73  73 100 CALM      30.04R
PALESTINE      CLOUDY    74  74 100 CALM      30.06R FOG
JACKSONVILLE   CLOUDY    74  73  99 N3        30.07R FOG
HENDERSON      CLOUDY    76  74  91 CALM      30.05R
CENTER         SUNNY     78  77  95 CALM      30.05R
NACOGDOCHES    CLOUDY   N/A N/A N/A CALM      30.01S
LUFKIN         CLOUDY    76  74  93 CALM      30.02R
$$

SUPPLEMENTAL OBSERVATIONS (CENTRAL)

CITY           SKY/WX    TMP DP  RH WIND       PRES   REMARKS
$$

SUPPLEMENTAL OBSERVATIONS (WEST)

CITY           SKY/WX    TMP DP  RH WIND       PRES   REMARKS
$$

SUPPLEMENTAL OBSERVATIONS (EAST)

CITY           SKY/WX    TMP DP  RH WIND       PRES   REMARKS
$$

SUPPLEMENTAL OBSERVATIONS ARE A COLLECTION OF AUTOMATED INSTRUMENTS
THAT ARE MAINTAINED BY A VARIETY OF FEDERAL AND STATE AGENCIES.
CERTAIN ELEMENTS...SUCH AS HUMIDITY VALUES AND SUSTAINED WIND
SPEEDS...MAY BE APPROXIMATED.




USA.gov is the U.S. government's official web portal to all federal, state and local government web resources and services.